FW6330 Weather Reports


Display with metric or nautical units.
time (UTC)temp
F
wind
direction
speed
MPH
gust
MPH
rain 1hr
in
rain 24hr
in
rain mn
in
humidity
%
barometer
mb
20260901170056 58 51 0.0 5.0 0.00 0.00 0.00 46 1012.5
20260901164551 58 181 1.0 5.0 0.00 0.00 0.00 42 1012.4
20260901163050 58 198 1.0 7.0 0.00 0.00 0.00 40 1012.3
20260901161549 58 20 0.0 3.0 0.00 0.00 0.00 42 1012.3
20260901160044 57 13 1.0 5.0 0.00 0.00 0.00 42 1012.3
20260901154543 57 81 0.0 6.0 0.00 0.00 0.00 42 1012.2
20260901153044 56 166 1.0 4.0 0.00 0.00 0.00 43 1012.1
20260901151538 55 7 0.0 1.0 0.00 0.00 0.00 49 1012.2
20260901150035 51 159 0.0 0.0 0.00 0.00 0.00 57 1012.4
20260901144530 47 122 0.0 0.0 0.00 0.00 0.00 69 1012.2
20260901143034 45 111 0.0 1.0 0.00 0.00 0.00 72 1012.2
20260901141528 42 62 0.0 1.0 0.00 0.00 0.00 76 1012.3
20260901140030 41 316 0.0 1.0 0.00 0.00 0.00 77 1012.1
20260901134527 40 112 0.0 0.0 0.00 0.00 0.00 78 1012.0
20260901133032 40 258 0.0 0.0 0.00 0.00 0.00 78 1011.9
20260901131526 41 78 0.0 0.0 0.00 0.00 0.00 78 1012.0
20260901130026 41 194 0.0 0.0 0.00 0.00 0.00 78 1012.0
20260901124523 41 190 0.0 0.0 0.00 0.00 0.00 78 1012.0
20260901123023 41 314 0.0 0.0 0.00 0.00 0.00 77 1012.1
20260901121521 42 91 0.0 0.0 0.00 0.00 0.00 76 1012.0
20260901120018 43 108 0.0 0.0 0.00 0.00 0.00 74 1012.0
20260901114512 44 315 0.0 0.0 0.00 0.00 0.00 72 1012.1
20260901113009 45 160 0.0 0.0 0.00 0.00 0.00 70 1012.0
20260901111507 47 100 0.0 0.0 0.00 0.00 0.00 67 1012.1
20260901110006 48 206 0.0 0.0 0.00 0.00 0.00 66 1012.1
20260901104512 48 169 0.0 1.0 0.00 0.00 0.00 65 1012.1
20260901103005 49 359 0.0 6.0 0.00 0.00 0.00 64 1012.1
20260901101503 49 221 0.0 2.0 0.00 0.00 0.00 65 1012.1
20260901100004 50 217 0.0 1.0 0.00 0.00 0.00 64 1012.1
20260901094503 50 120 0.0 2.0 0.00 0.00 0.00 65 1012.2
20260901093110 50 231 0.0 2.0 0.00 0.00 0.00 66 1012.3
20260901091604 50 94 0.0 4.0 0.00 0.00 0.00 69 1012.2
20260901090057 50 191 0.0 1.0 0.00 0.00 0.00 71 1012.3
20260901084552 48 152 0.0 2.0 0.00 0.00 0.00 73 1012.4
20260901083051 47 89 0.0 0.0 0.00 0.00 0.00 73 1012.4
20260901081550 47 231 0.0 0.0 0.00 0.00 0.00 71 1012.5
20260901080050 47 178 0.0 5.0 0.00 0.00 0.00 71 1012.5
20260901074550 47 330 0.0 1.0 0.00 0.00 0.00 72 1012.5
20260901073048 47 132 0.0 1.0 0.00 0.00 0.00 73 1012.6
20260901071558 46 99 0.0 1.0 0.00 0.00 0.00 74 1012.5
20260901070044 46 354 0.0 1.0 0.00 0.00 0.00 75 1012.4
20260901064542 47 57 0.0 1.0 0.00 0.00 0.00 75 1012.5
20260901063042 47 207 0.0 0.0 0.00 0.00 0.00 75 1012.6
20260901061544 47 160 0.0 0.0 0.00 0.00 0.00 76 1012.7
20260901060043 47 205 0.0 0.0 0.00 0.00 0.00 75 1012.7
20260901054539 47 133 0.0 1.0 0.00 0.00 0.00 75 1012.8
20260901053042 48 10 0.0 1.0 0.00 0.00 0.00 75 1012.8
20260901051541 48 179 0.0 0.0 0.00 0.00 0.00 74 1012.9
20260901050038 48 147 0.0 0.0 0.00 0.00 0.00 74 1013.0
20260901044539 48 83 0.0 1.0 0.00 0.00 0.00 73 1012.9
20260901043046 48 83 0.0 0.0 0.00 0.00 0.00 72 1012.8
20260901041536 49 274 0.0 0.0 0.00 0.00 0.00 71 1012.7
20260901040036 49 281 0.0 0.0 0.00 0.00 0.00 70 1012.5
20260901034546 50 232 0.0 0.0 0.00 0.00 0.00 70 1012.3
20260901033053 50 191 0.0 1.0 0.00 0.00 0.00 68 1012.2
20260901031600 51 249 0.0 0.0 0.00 0.00 0.00 67 1012.1
20260901030042 52 42 0.0 0.0 0.00 0.00 0.00 65 1011.9
20260901024534 54 41 0.0 0.0 0.00 0.00 0.00 62 1011.8
20260901023032 55 288 0.0 0.0 0.00 0.00 0.00 59 1011.9
20260901021536 56 80 0.0 1.0 0.00 0.00 0.00 58 1011.9
20260901020035 57 200 0.0 1.0 0.00 0.00 0.00 57 1011.9
20260901014532 59 79 0.0 1.0 0.00 0.00 0.00 56 1011.7
20260901013038 60 173 0.0 1.0 0.00 0.00 0.00 54 1011.7
20260901011531 61 194 0.0 2.0 0.00 0.00 0.00 53 1011.7
20260901010034 62 203 0.0 2.0 0.00 0.00 0.00 52 1011.5
20260901004528 63 356 0.0 2.0 0.00 0.00 0.00 50 1011.3
20260901003028 63 130 0.0 3.0 0.00 0.00 0.00 49 1011.4
20260901001536 64 53 0.0 3.0 0.00 0.00 0.00 49 1011.4
20260901000030 65 114 0.0 4.0 0.00 0.00 0.00 49 1011.5
20260831234525 64 343 0.0 4.0 0.00 0.00 0.00 50 1011.5
20260831233024 65 347 0.0 4.0 0.00 0.00 0.00 50 1011.6
20260831231523 65 353 0.0 4.0 0.00 0.00 0.00 49 1011.8
20260831230025 66 207 0.0 4.0 0.00 0.00 0.00 48 1011.7
20260831224520 67 316 1.0 3.0 0.00 0.00 0.00 47 1011.7
20260831223024 68 234 0.0 3.0 0.00 0.00 0.00 47 1011.8
20260831221519 67 186 0.0 3.0 0.00 0.00 0.00 46 1011.8
20260831220018 68 39 0.0 5.0 0.00 0.00 0.00 45 1011.9
20260831214518 68 25 0.0 4.0 0.00 0.00 0.00 44 1012.0
20260831213020 68 282 0.0 7.0 0.00 0.00 0.00 44 1012.0
20260831211515 68 150 0.0 4.0 0.00 0.00 0.00 43 1012.3
20260831210015 68 338 0.0 6.0 0.00 0.00 0.00 41 1012.3
20260831204514 68 341 2.0 6.0 0.00 0.00 0.00 40 1012.3
20260831203013 68 315 0.0 3.0 0.00 0.00 0.00 39 1012.4
20260831201513 70 136 0.0 3.0 0.00 0.00 0.00 36 1012.6
20260831200008 68 58 0.0 4.0 0.00 0.00 0.00 36 1012.7
20260831194507 68 329 0.0 5.0 0.00 0.00 0.00 36 1012.7
20260831193003 68 79 0.0 2.0 0.00 0.00 0.00 36 1013.0
20260831191503 67 98 0.0 4.0 0.00 0.00 0.00 35 1013.2
20260831190002 67 149 0.0 4.0 0.00 0.00 0.00 33 1013.2
20260831184500 67 348 0.0 6.0 0.00 0.00 0.00 32 1013.2
20260831183003 68 340 1.0 5.0 0.00 0.00 0.00 29 1013.2
20260831181601 69 355 0.0 2.0 0.00 0.00 0.00 30 1013.1
20260831180058 68 255 0.0 5.0 0.00 0.00 0.00 34 1013.1
20260831174601 68 6 0.0 4.0 0.00 0.00 0.00 32 1013.1
20260831173127 67 84 0.0 3.0 0.00 0.00 0.00 29 1012.9
20260831171554 66 271 0.0 4.0 0.00 0.00 0.00 34 1013.0